Tracking 28790 objects as of 19-Apr-2024
HD Live streaming from Space Station
objects crossing your sky now

IRIDIUM 33 DEB

Track IRIDIUM 33 DEB now!
10-day predictions


NORAD ID: 34833
Int'l Code: 1997-051MH
Perigee: 734.0 km
Apogee: 762.4 km
Inclination: 86.4 °
Period: 99.6 minutes
Semi major axis: 7119 km
RCS: 0.0141 m2 (small)
Launch date: September 14, 1997
Source: United States (US)
Launch site: TYURATAM MISSILE AND SPACE COMPLEX (TTMTR)

Note: This is SATELLITE DEBRIS
Your satellite tracking list
Your tracking list is empty




NASA's NSSDC Master Catalog

Two Line Element Set (TLE):
1 34833U 97051MH  24109.56930809  .00006415  00000-0  18176-2 0  9990
2 34833  86.3927 309.4578 0019981 314.4664  99.6808 14.45299134789792
Source of the keplerian elements: AFSPC